Charlotte, NC

7:36 AM EDT on September 25, 2017 (GMT -0400)
Charlotte-Douglas International

Weather History for KCLT - July, 2014

Change the Weather History Date:

Monday, July 14, 2014

  Actual Average Record
Temperature  
Mean Temperature 85 °F 79 °F  
Max Temperature 96 °F 89 °F 102 °F (1954)
Min Temperature 74 °F 68 °F 59 °F (2007)
Degree Days  
Heating Degree Days 0 0  
Month to date heating degree days 0 0  
Since 1 June heating degree days 0 3  
Since 1 July heating degree days 0 0  
Cooling Degree Days 20 14  
Month to date cooling degree days 202 189  
Year to date cooling degree days 803 663  
Since 1 June cooling degree days 575 500  
Growing Degree Days 34 (Base 50)    
Moisture  
Dew Point 68 °F    
Average Humidity 63    
Maximum Humidity 87    
Minimum Humidity 38    
Precipitation  
Precipitation 0.00 in 0.12 in 2.15 in (1886)
Month to date precipitation 0.29 1.53  
Year to date precipitation 25.93 22.23  
Snow  
Snow 0.00 in 0.00 in 0.00 in ()
Month to date snowfall 0.0 0.0  
Since 1 June snowfall 0.0 0.0  
Since 1 July snowfall 0.0 0.0  
Snow Depth 0.00 in    
Sea Level Pressure  
Sea Level Pressure 29.96 in    
Wind  
Wind Speed 7 mph (SW)    
Max Wind Speed 15 mph    
Max Gust Speed 20 mph    
Visibility 10 miles    
Events      
T = Trace of Precipitation, MM = Missing Value Source: NWS Daily Summary

Daily Weather History Graph

Daily Weather History Graph

Search for Another Location

Airport or City:

Trip Planner

Search our weather history database for the weather conditions in past years. The results will help you decide how hot, cold, wet, or windy it might be!

Date:

Astronomy

Jul. 14, 2014 Rise Set
Actual Time 6:19 AM EDT 8:39 PM EDT
Civil Twilight 5:50 AM EDT 9:08 PM EDT
Nautical Twilight 5:15 AM EDT 9:43 PM EDT
Astronomical Twilight 4:35 AM EDT 10:22 PM EDT
Moon 10:16 PM EDT (7/14) 8:53 AM EDT (7/14)
Length of Visible Light 15h 17m
Length of Day
14h 19m
Waning Gibbous, 93% of the Moon is Illuminated
Jul 14
Waning Gibbous
Jul 18
Last Quarter
Jul 26
New
Aug 3
First Quarter
Aug 10
Full

Hourly Weather History & Observations

Time (EDT) Temp. Heat Index Dew Point Humidity Pressure Visibility Wind Dir Wind Speed Gust Speed Precip Events Conditions
12:52 AM 75.9 °F - 66.9 °F 74% 30.02 in 10.0 mi South 6.9 mph - N/A   Overcast
1:52 AM 77.0 °F - 68.0 °F 74% 30.04 in 10.0 mi South 5.8 mph - N/A   Overcast
2:52 AM 75.2 °F - 69.8 °F 83% 30.03 in 10.0 mi South 6.9 mph - N/A   Overcast
3:52 AM 75.0 °F - 69.1 °F 82% 30.00 in 10.0 mi SSW 4.6 mph - N/A   Mostly Cloudy
4:52 AM 73.9 °F - 69.1 °F 85% 30.00 in 10.0 mi SSW 4.6 mph - N/A   Mostly Cloudy
5:52 AM 73.9 °F - 69.1 °F 85% 30.00 in 10.0 mi SSW 6.9 mph - N/A   Mostly Cloudy
6:52 AM 73.9 °F - 69.1 °F 85% 30.01 in 10.0 mi SSW 5.8 mph - N/A   Scattered Clouds
7:52 AM 77.0 °F - 69.1 °F 76% 30.01 in 10.0 mi SSW 6.9 mph - N/A   Scattered Clouds
8:52 AM 80.1 °F 82.9 °F 69.1 °F 69% 30.01 in 10.0 mi SW 9.2 mph - N/A   Scattered Clouds
9:52 AM 82.9 °F 86.5 °F 69.1 °F 63% 30.01 in 10.0 mi WSW 8.1 mph - N/A   Partly Cloudy
10:52 AM 86.0 °F 90.7 °F 70.0 °F 59% 30.00 in 10.0 mi WSW 8.1 mph - N/A   Partly Cloudy
11:52 AM 89.1 °F 93.7 °F 69.1 °F 52% 29.99 in 10.0 mi WSW 6.9 mph - N/A   Scattered Clouds
12:52 PM 91.0 °F 95.6 °F 69.1 °F 48% 29.97 in 10.0 mi Variable 4.6 mph - N/A   Scattered Clouds
1:52 PM 93.0 °F 97.4 °F 68.0 °F 44% 29.95 in 10.0 mi WSW 8.1 mph 16.1 mph N/A   Scattered Clouds
2:52 PM 93.2 °F 94.9 °F 64.4 °F 38% 29.96 in 10.0 mi SW 10.4 mph - N/A   Scattered Clouds
3:52 PM 93.9 °F 96.1 °F 64.9 °F 38% 29.90 in 10.0 mi SW 10.4 mph 16.1 mph N/A   Scattered Clouds
4:52 PM 91.9 °F 92.9 °F 63.0 °F 38% 29.89 in 10.0 mi SW 9.2 mph 18.4 mph N/A   Mostly Cloudy
5:52 PM 93.9 °F 95.6 °F 64.0 °F 37% 29.88 in 10.0 mi SW 9.2 mph - N/A   Mostly Cloudy
6:52 PM 87.1 °F 89.9 °F 66.9 °F 51% 29.88 in 10.0 mi West 4.6 mph - N/A   Mostly Cloudy
7:52 PM 86.0 °F 88.2 °F 66.0 °F 51% 29.87 in 10.0 mi WSW 3.5 mph - N/A   Mostly Cloudy
8:52 PM 84.0 °F 86.3 °F 66.0 °F 55% 29.89 in 10.0 mi WSW 3.5 mph - N/A   Mostly Cloudy
9:52 PM 82.9 °F 85.4 °F 66.9 °F 58% 29.88 in 10.0 mi SSW 3.5 mph - N/A   Mostly Cloudy
10:52 PM 81.0 °F 83.8 °F 68.0 °F 65% 29.89 in 10.0 mi SSW 5.8 mph - N/A   Mostly Cloudy
11:52 PM 81.0 °F 83.8 °F 68.0 °F 65% 29.89 in 10.0 mi SSW 6.9 mph - N/A   Partly Cloudy